EEL RIVER CAMP CA US current weather conditions

sailwx.info

Wind from 045 at 5 knots gusting 14

Air temperature 33.3° C
Dewpoint 8.0° C

Last reported at 2014-Sep-01 22:28 UTC.
Time now 2014-Sep-01 23:28 UTC

Location: N 40°08' W 123°49'.
View on Google Maps.

See reports from other nearby stations

  
Tides and Currents Weather Stations Pressure Air Temp Water Temp Dewpoint Dewpoint Depression Visibility Wind Speed Wind Dir Waves Ship Positions
date/time (UTC)wind fromknots sea level pressurealtimeterstation pressurevisibilityair tempwater tempwave heightnotes
2014-Sep-01 22:28 045 5 gusting 14 33.3
2014-Sep-01 21:28 058 6 gusting 13 32.8
2014-Sep-01 20:28 068 6 gusting 12 31.1
2014-Sep-01 19:28 080 5 gusting 9 28.9
2014-Sep-01 18:28 088 5 gusting 9 26.1
2014-Sep-01 17:28 238 1 gusting 5 23.3
2014-Sep-01 16:28 237 0 gusting 3 19.4
2014-Sep-01 15:28 180 1 gusting 3 16.1
2014-Sep-01 14:28 263 1 gusting 3 11.7
2014-Sep-01 13:28 278 1 gusting 5 11.7
2014-Sep-01 12:28 322 1 gusting 4 12.2
2014-Sep-01 11:28 269 0 gusting 2 12.8
2014-Sep-01 10:28 257 1 gusting 5 13.3
2014-Sep-01 09:28 282 2 gusting 6 13.9
2014-Sep-01 08:28 220 1 gusting 6 14.4
2014-Sep-01 07:28 336 0 gusting 9 15.6
2014-Sep-01 06:28 028 5 gusting 8 16.7
2014-Sep-01 05:28 037 4 gusting 9 17.2
2014-Sep-01 04:28 053 4 gusting 12 18.3
2014-Sep-01 03:28 074 5 gusting 12 20.0
2014-Sep-01 02:28 032 6 gusting 12 21.1
2014-Sep-01 01:28 359 6 gusting 15 23.9
2014-Sep-01 00:28 356 6 gusting 12 26.1
2014-Aug-31 23:28 009 6 gusting 17 27.8
2014-Aug-31 22:28 030 9 gusting 18 28.3
2014-Aug-31 21:28 005 8 gusting 17 28.9
2014-Aug-31 20:28 014 8 gusting 16 28.3
2014-Aug-31 19:28 036 7 gusting 14 27.2
2014-Aug-31 18:28 107 4 gusting 11 25.0
2014-Aug-31 17:28 081 5 gusting 12 22.8
2014-Aug-31 16:28 075 4 gusting 8 19.4
2014-Aug-31 15:28 135 0 gusting 6 17.2
2014-Aug-31 14:28 146 1 gusting 4 12.2
2014-Aug-31 13:28 233 0 gusting 5 12.2
2014-Aug-31 12:28 309 2 gusting 6 13.3
2014-Aug-31 11:28 032 2 gusting 6 15.0
2014-Aug-31 10:28 010 2 gusting 7 15.0
2014-Aug-31 09:28 061 2 gusting 6 16.1
2014-Aug-31 08:28 059 3 gusting 9 16.7
2014-Aug-31 07:28 069 1 gusting 4 15.6
2014-Aug-31 06:28 319 0 gusting 6 15.6
2014-Aug-31 05:28 094 0 gusting 6 17.8
2014-Aug-31 04:28 013 3 gusting 12 18.3
2014-Aug-31 03:28 023 6 gusting 14 20.6
2014-Aug-31 02:28 357 3 gusting 13 21.7
2014-Aug-31 01:28 026 4 gusting 11 26.1
2014-Aug-31 00:28 004 6 gusting 13 27.2
2014-Aug-30 23:28 334 6 gusting 17 28.9